Wind_Speed
42 51 53 56 49 37 41 41 36 45 55 45 47 52 51 45 44 46 45 42 38 37 37 35 36 35 34 32 30 31 30 30 31 32 34 36 34 35 37 37 37 40 42 43
58 41 36 56 56 34 37 39 40 39 36 40 39 43 55 50 48 50 48 50 45 42 39 38 39 37 37 35 34 32 31 33 34 35 36 38 38 39 41 43 43 45 46 47
49 46 48 49 51 42 41 39 39 38 35 32 38 34 53 58 55 49 49 49 45 46 45 43 41 39 37 35 37 35 35 37 38 38 39 41 42 42 45 45 46 47 49 50
45 55 41 42 52 42 42 44 39 41 44 31 28 34 33 53 57 54 50 49 50 49 44 43 45 43 41 40 41 40 41 41 41 43 43 45 47 47 46 46 49 50 51 55
46 42 47 33 47 33 35 43 41 44 49 40 30 31 32 36 54 64 53 55 55 50 45 47 47 47 45 45 45 45 45 45 47 47 47 49 50 48 47 48 50 51 53 56
67 45 48 35 38 44 38 36 48 48 45 39 34 37 30 32 33 49 59 62 57 61 58 56 56 54 51 50 48 50 51 53 49 50 53 54 53 52 53 51 51 54 59 60
66 65 48 55 32 47 34 32 38 34 37 35 34 34 32 27 28 31 33 37 36 39 42 44 46 54 52 49 51 52 48 46 42 45 44 42 44 54 51 53 58 58 54 65
60 66 65 52 58 40 47 43 37 41 35 43 40 41 36 34 33 32 33 35 35 35 37 36 33 32 32 34 33 30 35 47 41 48 46 51 52 46 54 50 54 56 53 61
49 58 62 62 59 58 54 49 46 42 43 40 42 40 36 39 35 36 31 31 31 32 32 36 36 32 31 33 34 35 37 41 43 42 44 50 52 57 60 60 57 53 52 54
41 47 49 57 51 50 51 54 56 57 46 46 44 43 39 36 35 31 30 30 29 26 24 26 28 29 30 33 36 37 39 42 44 47 50 53 56 59 60 58 56 53 51 49
31 38 41 48 50 50 51 50 49 49 45 38 39 40 38 38 34 33 28 26 27 32 33 31 27 29 31 32 32 34 37 38 43 50 50 48 45 45 47 47 45 43 45 47
32 28 34 39 40 45 45 45 41 41 40 36 36 40 38 37 34 33 27 28 32 31 29 30 30 30 33 33 34 34 36 39 42 47 45 42 43 41 45 46 46 48 47 47
33 32 29 30 35 38 41 41 38 38 38 37 38 37 36 34 33 33 27 26 28 30 31 32 33 35 37 38 41 41 40 42 45 47 47 44 43 43 45 49 52 48 46 47
36 32 29 28 28 31 31 29 31 34 34 34 32 32 30 30 30 29 30 29 30 30 32 32 34 37 38 39 40 44 44 43 43 44 41 42 43 41 41 45 48 51 52 51
36 34 32 29 28 27 29 27 28 28 25 26 24 26 26 28 30 29 29 30 30 30 30 31 34 35 35 37 38 39 39 40 40 40 43 43 43 42 44 47 50 52 53 51
35 34 32 31 29 27 27 27 26 25 25 25 25 26 28 28 30 31 30 30 30 30 29 28 29 29 31 32 34 37 39 41 43 46 44 43 46 47 48 52 52 50 49 50
34 34 33 33 31 30 27 26 26 26 26 26 25 26 27 27 27 27 28 29 29 29 29 29 30 31 32 33 34 36 37 39 41 44 43 42 46 49 49 48 48 50 51 54
30 32 32 32 33 31 28 28 28 27 27 26 27 27 28 28 27 27 29 31 32 32 31 32 33 35 36 37 40 42 43 46 48 46 45 50 50 49 49 50 51 53 56 60
36 27 30 32 32 31 29 28 29 29 28 28 28 29 30 29 29 29 31 31 33 35 36 37 39 41 43 45 46 47 49 45 44 45 46 45 44 46 48 51 54 58 61 57
36 36 33 33 32 32 30 28 29 29 27 28 30 32 30 31 30 32 34 35 37 38 40 43 43 43 42 42 40 40 42 43 44 42 41 42 44 48 53 57 60 60 54 57
45 40 38 34 33 33 31 30 29 29 27 25 28 31 30 32 34 35 37 36 36 36 38 38 36 38 39 39 39 40 40 39 36 37 41 45 50 54 59 56 51 53 58 61
42 43 40 38 36 33 29 27 27 26 29 30 30 30 27 29 32 31 32 33 32 32 33 36 37 37 36 35 34 34 32 33 37 42 48 53 56 52 48 52 56 60 63 65
18 33 36 31 25 23 26 28 28 27 26 25 24 22 21 21 22 24 24 23 26 28 28 27 27 28 28 27 27 30 35 40 46 49 53 49 46 51 54 58 61 63 66 68
12 16 17 17 15 21 20 18 22 23 21 22 20 19 19 20 19 19 20 22 24 25 24 23 21 22 25 29 34 39 44 47 49 47 45 50 53 57 60 62 64 67 70 72
4 8 10 7 12 14 16 16 18 18 20 21 22 21 21 21 21 21 21 20 20 18 19 22 25 29 32 37 42 44 45 44 42 47 51 55 58 60 62 65 68 71 74 76
5 5 6 5 6 6 9 11 12 12 13 13 15 16 17 18 19 19 19 18 19 22 25 28 32 35 41 41 38 37 39 45 49 53 56 59 61 63 65 68 71 74 76 78
Wind_Direction
200 213 220 226 220 219 226 222 214 216 224 222 230 226 227 222 225 230 233 232 233 235 240 242 245 245 246 248 250 254 259 265 268 270 274 277 281 281 282 283 283 284 289 290
204 203 210 211 221 211 206 209 211 211 214 226 237 229 224 228 224 229 234 237 235 241 243 246 248 251 254 257 260 262 266 267 270 273 274 277 278 281 283 285 286 288 289 291
209 198 209 213 215 219 214 212 208 209 211 232 228 227 221 224 227 229 235 241 243 244 246 248 253 254 256 257 261 263 265 266 268 271 273 277 279 283 286 287 287 288 291 292
207 203 193 202 216 218 224 221 217 218 222 232 224 229 225 227 228 232 233 239 240 243 246 251 253 257 259 260 262 263 265 269 271 274 276 279 280 284 286 285 287 289 290 292
187 187 200 204 205 212 225 226 227 227 235 235 225 226 222 221 228 228 231 238 240 243 248 252 255 257 258 260 261 263 266 269 275 275 277 280 280 282 287 289 289 290 291 292
222 201 198 190 211 209 204 217 228 231 237 246 238 236 238 232 234 233 234 239 249 250 246 249 254 256 256 258 261 264 266 270 274 276 277 280 282 283 283 283 288 291 289 292
230 227 215 216 203 210 208 211 209 213 219 217 215 224 223 228 225 226 230 241 245 249 252 255 258 256 262 265 265 265 267 267 275 275 273 278 283 286 283 286 288 290 290 294
226 229 224 223 211 203 219 212 215 213 216 224 227 230 229 236 241 236 236 244 243 244 249 253 254 253 257 260 270 269 276 265 272 274 274 285 280 280 278 284 286 290 288 285
223 228 229 231 223 219 219 217 220 226 225 225 230 238 244 243 249 253 251 252 254 257 259 261 260 268 277 275 274 273 272 272 277 282 273 273 276 282 283 286 284 288 283 281
217 225 230 232 231 231 231 238 240 236 245 241 247 248 251 253 255 258 266 271 268 264 268 271 269 270 271 271 270 271 272 272 273 275 276 277 277 279 280 281 281 285 284 284
213 223 224 227 230 231 234 236 241 245 249 250 255 255 253 256 258 257 256 260 260 266 265 270 270 266 265 266 268 270 271 276 277 274 278 280 283 285 287 288 287 285 286 285
205 215 220 226 227 231 235 235 234 234 239 242 249 252 252 253 256 260 256 250 261 265 261 263 261 265 269 274 276 273 274 276 276 280 282 283 286 291 296 293 289 288 289 292
195 211 215 218 224 227 229 231 230 232 233 235 238 242 245 252 253 257 258 255 256 260 261 261 262 263 266 271 277 280 277 275 277 277 290 298 297 292 290 292 294 296 301 305
203 209 210 213 217 219 223 224 228 232 235 237 242 248 253 260 261 257 257 259 259 259 261 263 266 268 270 273 274 276 276 275 275 280 283 283 283 287 291 292 294 301 303 303
207 209 212 212 212 214 217 219 222 227 228 237 239 246 253 258 262 268 271 271 269 265 265 268 271 273 273 274 276 277 277 280 282 285 289 291 293 294 294 297 299 300 298 298
209 211 213 214 215 215 217 219 222 225 228 233 240 244 247 253 259 262 268 270 273 275 275 276 277 276 276 276 275 276 278 281 283 284 288 290 293 292 294 296 296 295 294 295
213 214 216 216 217 217 216 221 225 226 230 235 240 240 249 253 258 264 269 272 273 275 275 277 280 281 282 283 286 285 285 286 288 290 291 292 293 295 295 293 293 294 296 295
213 220 217 218 219 219 219 223 227 231 234 237 241 245 250 255 258 261 265 267 271 272 274 278 278 279 281 282 284 284 284 288 288 289 291 293 293 293 292 294 296 295 295 298
209 221 226 225 228 227 226 227 230 232 235 237 241 244 249 253 257 262 262 264 270 271 272 274 277 278 279 281 280 281 285 285 287 290 289 288 288 290 293 293 294 296 297 300
199 206 212 226 225 229 229 232 235 238 239 246 247 249 253 259 263 262 265 271 272 273 271 271 273 275 276 279 280 280 281 283 285 285 284 285 288 290 294 295 295 296 297 300
200 206 211 218 227 228 234 236 239 243 246 248 251 254 259 259 264 267 267 269 268 266 267 270 272 275 275 275 276 281 283 282 279 281 286 289 292 293 295 297 296 297 300 302
208 209 214 221 229 235 239 243 245 249 252 255 258 262 266 261 260 261 260 260 261 263 264 265 269 272 275 278 280 279 279 281 285 287 290 291 294 296 295 298 301 302 303 305
208 214 219 230 236 234 240 243 243 245 248 251 250 250 248 248 248 254 257 259 256 259 263 265 269 270 271 274 276 278 283 285 286 289 293 294 295 299 301 302 304 305 306 306
192 200 204 213 217 219 218 220 220 222 226 230 230 232 234 235 239 245 246 249 254 256 260 265 269 274 278 281 285 286 285 287 290 293 295 298 300 302 303 304 305 306 307 308
150 182 185 186 193 192 202 207 214 221 226 229 232 234 235 240 242 249 253 253 257 259 263 269 274 280 284 288 290 290 291 293 294 297 299 300 301 303 304 305 306 308 309 309
145 142 144 161 171 194 226 232 229 230 221 222 229 231 247 250 251 250 253 251 257 266 272 277 282 287 293 294 293 294 296 297 299 299 299 301 303 304 305 307 309 308 308 309
Height
5706 5714 5722 5729 5736 5740 5746 5751 5757 5764 5769 5777 5785 5792 5793 5801 5807 5809 5811 5814 5820 5822 5826 5829 5831 5833 5834 5836 5838 5840 5842 5844 5844 5844 5844 5842 5843 5842 5840 5839 5837 5836 5835 5833
5696 5704 5712 5721 5727 5734 5738 5743 5750 5757 5763 5770 5775 5779 5787 5793 5798 5800 5804 5805 5813 5818 5821 5823 5824 5827 5830 5833 5834 5835 5837 5837 5837 5838 5837 5836 5835 5834 5833 5831 5829 5828 5826 5824
5685 5694 5705 5712 5722 5725 5733 5738 5744 5752 5758 5762 5766 5770 5776 5783 5787 5794 5799 5803 5808 5812 5814 5817 5822 5824 5825 5828 5829 5830 5829 5829 5829 5829 5829 5828 5828 5827 5825 5824 5821 5819 5817 5815
5675 5684 5696 5703 5711 5720 5725 5732 5738 5746 5751 5755 5759 5763 5769 5774 5781 5786 5793 5795 5798 5801 5809 5811 5814 5816 5819 5821 5822 5822 5822 5822 5822 5821 5821 5820 5819 5818 5817 5813 5811 5809 5807 5804
5674 5676 5690 5696 5703 5713 5719 5726 5731 5739 5744 5748 5754 5757 5765 5767 5770 5773 5785 5785 5789 5796 5803 5803 5806 5809 5810 5812 5813 5814 5814 5815 5814 5813 5813 5811 5810 5808 5806 5803 5801 5798 5796 5792
5660 5671 5679 5688 5696 5707 5713 5719 5726 5732 5737 5742 5747 5753 5759 5761 5763 5768 5775 5778 5785 5788 5792 5795 5796 5799 5801 5804 5805 5805 5805 5806 5805 5804 5803 5801 5800 5798 5795 5792 5790 5787 5784 5781
5656 5665 5675 5684 5691 5700 5704 5712 5716 5725 5729 5737 5742 5746 5756 5757 5760 5763 5770 5772 5774 5779 5783 5787 5787 5789 5792 5794 5794 5795 5796 5797 5797 5795 5793 5791 5789 5787 5784 5782 5779 5775 5771 5768
5653 5663 5669 5677 5684 5693 5699 5705 5711 5717 5723 5732 5736 5741 5750 5755 5757 5759 5763 5764 5769 5773 5775 5777 5780 5781 5784 5785 5785 5786 5787 5787 5787 5785 5784 5781 5778 5776 5773 5770 5768 5764 5760 5757
5649 5655 5665 5673 5679 5685 5691 5696 5706 5713 5718 5724 5732 5738 5742 5745 5748 5750 5754 5757 5762 5765 5767 5770 5771 5772 5773 5775 5776 5778 5778 5777 5776 5776 5774 5770 5768 5765 5763 5759 5756 5752 5749 5745
5642 5650 5657 5665 5672 5677 5684 5693 5699 5706 5713 5719 5724 5730 5735 5738 5741 5744 5747 5750 5755 5758 5761 5762 5763 5765 5767 5768 5769 5769 5768 5767 5766 5765 5764 5761 5758 5755 5752 5748 5744 5741 5737 5733
5636 5644 5653 5660 5666 5672 5680 5686 5693 5701 5706 5712 5718 5724 5728 5732 5735 5738 5743 5746 5748 5751 5754 5756 5757 5759 5759 5760 5760 5759 5759 5758 5757 5755 5753 5750 5747 5744 5741 5737 5733 5730 5726 5722
5633 5637 5645 5656 5661 5668 5674 5681 5687 5692 5701 5707 5714 5719 5720 5724 5728 5731 5735 5738 5743 5744 5746 5747 5749 5750 5751 5751 5752 5752 5751 5751 5748 5746 5742 5740 5737 5734 5730 5727 5724 5719 5715 5710
5631 5635 5642 5649 5656 5662 5669 5676 5681 5687 5695 5702 5707 5713 5712 5716 5720 5725 5728 5730 5734 5737 5738 5739 5740 5741 5742 5743 5744 5744 5743 5741 5739 5736 5733 5730 5726 5723 5720 5717 5714 5709 5705 5702
5628 5633 5639 5646 5653 5660 5665 5670 5677 5683 5690 5696 5700 5702 5705 5708 5713 5718 5720 5723 5726 5729 5730 5731 5732 5733 5734 5735 5733 5733 5732 5730 5728 5725 5722 5719 5716 5713 5709 5706 5703 5698 5693 5688
5624 5629 5635 5641 5647 5653 5659 5665 5671 5679 5684 5688 5692 5695 5699 5702 5706 5710 5711 5715 5718 5720 5721 5721 5723 5724 5724 5724 5723 5723 5722 5720 5718 5715 5712 5710 5706 5703 5700 5695 5691 5686 5682 5677
5620 5625 5631 5637 5642 5648 5655 5661 5668 5673 5679 5685 5688 5693 5695 5698 5702 5706 5707 5709 5710 5711 5713 5714 5715 5716 5716 5715 5714 5714 5713 5712 5709 5707 5704 5701 5697 5693 5688 5684 5679 5675 5669 5665
5616 5622 5627 5633 5639 5645 5653 5659 5664 5670 5674 5678 5683 5686 5690 5693 5697 5699 5701 5703 5703 5704 5706 5707 5708 5708 5707 5707 5706 5705 5703 5701 5699 5695 5692 5688 5684 5681 5676 5671 5667 5661 5656 5650
5611 5617 5623 5629 5635 5643 5650 5654 5659 5663 5668 5673 5676 5679 5683 5686 5689 5693 5695 5695 5697 5698 5699 5699 5699 5699 5699 5698 5696 5695 5693 5690 5687 5684 5681 5677 5673 5670 5665 5660 5655 5650 5644 5638
5608 5612 5618 5624 5631 5639 5644 5649 5654 5658 5664 5667 5670 5673 5675 5679 5682 5686 5687 5689 5690 5690 5691 5690 5690 5690 5689 5688 5687 5685 5682 5679 5677 5674 5670 5666 5662 5658 5654 5649 5643 5638 5631 5624
5603 5608 5614 5619 5625 5632 5638 5642 5647 5651 5658 5660 5663 5665 5670 5673 5677 5678 5679 5680 5681 5681 5681 5681 5680 5680 5679 5677 5676 5673 5671 5669 5666 5663 5660 5656 5652 5648 5643 5638 5632 5624 5618 5611
5598 5603 5609 5614 5619 5627 5633 5637 5641 5648 5656 5654 5656 5659 5664 5665 5667 5669 5669 5671 5671 5671 5671 5671 5671 5670 5669 5667 5665 5663 5662 5659 5657 5654 5651 5646 5642 5636 5631 5624 5617 5611 5605 5599
5594 5600 5606 5611 5616 5625 5629 5632 5637 5640 5642 5645 5648 5650 5654 5654 5655 5658 5659 5660 5661 5662 5662 5662 5662 5661 5659 5658 5657 5655 5653 5651 5648 5645 5640 5636 5629 5623 5617 5611 5605 5598 5592 5584
5593 5598 5605 5611 5616 5619 5621 5624 5627 5630 5633 5636 5639 5641 5644 5646 5648 5650 5651 5652 5653 5654 5654 5654 5654 5653 5652 5651 5650 5648 5645 5642 5638 5633 5627 5621 5616 5611 5605 5599 5592 5584 5577 5568
5592 5597 5602 5606 5610 5612 5615 5617 5620 5624 5627 5630 5633 5636 5639 5642 5644 5645 5646 5647 5647 5648 5648 5648 5648 5647 5646 5645 5643 5639 5635 5630 5625 5620 5615 5611 5605 5598 5591 5584 5577 5569 5560 5551
5595 5598 5602 5606 5607 5611 5613 5615 5618 5621 5624 5627 5630 5633 5635 5637 5639 5640 5641 5642 5643 5644 5644 5644 5643 5642 5640 5637 5632 5627 5622 5618 5613 5609 5604 5597 5591 5585 5578 5569 5561 5552 5544 5534
5598 5600 5603 5606 5609 5611 5613 5615 5617 5619 5621 5624 5627 5630 5632 5634 5635 5636 5638 5639 5639 5639 5639 5638 5636 5633 5629 5625 5620 5616 5612 5608 5603 5597 5591 5585 5578 5570 5562 5554 5545 5536 5526 5515